| time (UTC) | temp C | wind direction | speed KPH | gust KPH | rain 1hr cm | rain 24hr cm | rain mn cm | humidity % | barometer mb |
| 20260503032244 | 30 | 0.0 | 0.0 | 0.00 | 0.00 | 0.00 | 30 | 1005.6 | |
| 20260503031240 | 30 | 0.0 | 0.0 | 0.00 | 0.00 | 0.00 | 31 | 1005.5 | |
| 20260503030236 | 30 | 0.0 | 0.0 | 0.00 | 0.00 | 0.00 | 29 | 1005.5 | |
| 20260503025232 | 31 | 0.0 | 0.0 | 0.00 | 0.00 | 0.00 | 30 | 1005.3 | |
| 20260503024228 | 31 | 0.0 | 0.0 | 0.00 | 0.00 | 0.00 | 30 | 1005.3 | |
| 20260503023224 | 31 | 0.0 | 0.0 | 0.00 | 0.00 | 0.00 | 31 | 1005.2 | |
| 20260503022220 | 31 | 0.0 | 0.0 | 0.00 | 0.00 | 0.00 | 32 | 1005.1 | |
| 20260503015207 | 31 | 0.0 | 0.0 | 0.00 | 0.00 | 0.00 | 33 | 1005.0 | |
| 20260503014203 | 32 | 0.0 | 0.0 | 0.00 | 0.00 | 0.00 | 33 | 1005.0 | |
| 20260503013200 | 32 | 0.0 | 0.0 | 0.00 | 0.00 | 0.00 | 33 | 1005.1 | |
| 20260503012155 | 32 | 0.0 | 0.0 | 0.00 | 0.00 | 0.00 | 33 | 1005.1 | |
| 20260503011151 | 32 | 0.0 | 0.0 | 0.00 | 0.00 | 0.00 | 32 | 1005.0 | |
| 20260503010147 | 32 | 0.0 | 0.0 | 0.00 | 0.00 | 0.00 | 32 | 1004.8 | |
| 20260503005142 | 32 | 0.0 | 0.0 | 0.00 | 0.00 | 0.00 | 32 | 1004.5 | |
| 20260503004139 | 32 | 0.0 | 0.0 | 0.00 | 0.00 | 0.00 | 32 | 1004.5 | |
| 20260503002131 | 32 | 0.0 | 0.0 | 0.00 | 0.00 | 0.00 | 32 | 1004.5 | |
| 20260503001126 | 32 | 0.0 | 0.0 | 0.00 | 0.00 | 0.00 | 33 | 1004.7 | |
| 20260503000122 | 32 | 0.0 | 0.0 | 0.00 | 0.00 | 0.00 | 34 | 1004.8 | |
| 20260502235118 | 32 | 0.0 | 0.0 | 0.00 | 0.00 | 0.00 | 34 | 1004.9 | |
| 20260502234114 | 32 | 0.0 | 0.0 | 0.00 | 0.00 | 0.00 | 36 | 1004.9 | |
| 20260502233110 | 32 | 0.0 | 0.0 | 0.00 | 0.00 | 0.00 | 37 | 1004.9 | |
| 20260502232106 | 32 | 0.0 | 0.0 | 0.00 | 0.00 | 0.00 | 39 | 1004.9 | |
| 20260502222041 | 33 | 0.0 | 0.0 | 0.00 | 0.00 | 0.00 | 46 | 1004.7 | |
| 20260502221037 | 33 | 0.0 | 0.0 | 0.00 | 0.00 | 0.00 | 47 | 1004.7 | |
| 20260502220033 | 33 | 0.0 | 0.0 | 0.00 | 0.00 | 0.00 | 47 | 1004.7 | |
| 20260502215028 | 33 | 0.0 | 0.0 | 0.00 | 0.00 | 0.00 | 47 | 1004.8 | |
| 20260502214025 | 33 | 0.0 | 0.0 | 0.00 | 0.00 | 0.00 | 47 | 1004.9 | |
| 20260502213021 | 33 | 0.0 | 0.0 | 0.00 | 0.00 | 0.00 | 48 | 1004.9 | |
| 20260502212017 | 33 | 0.0 | 0.0 | 0.00 | 0.00 | 0.00 | 48 | 1004.8 | |
| 20260502211013 | 33 | 0.0 | 0.0 | 0.00 | 0.00 | 0.00 | 48 | 1004.8 | |
| 20260502210009 | 33 | 0.0 | 0.0 | 0.00 | 0.00 | 0.00 | 49 | 1005.0 | |
| 20260502205004 | 33 | 0.0 | 0.0 | 0.00 | 0.00 | 0.00 | 50 | 1004.6 | |
| 20260502204000 | 33 | 0.0 | 0.0 | 0.00 | 0.00 | 0.00 | 47 | 1004.5 | |
| 20260502202956 | 33 | 0.0 | 0.0 | 0.00 | 0.00 | 0.00 | 48 | 1004.7 | |
| 20260502201952 | 33 | 0.0 | 0.0 | 0.00 | 0.00 | 0.00 | 47 | 1004.1 | |
| 20260502195943 | 33 | 0.0 | 0.0 | 0.00 | 0.00 | 0.00 | 48 | 1003.3 | |
| 20260502194939 | 33 | 0.0 | 0.0 | 0.00 | 0.00 | 0.00 | 47 | 1003.0 | |
| 20260502191927 | 33 | 0.0 | 0.0 | 0.00 | 0.00 | 0.00 | 47 | 1003.1 | |
| 20260502185919 | 33 | 0.0 | 0.0 | 0.00 | 0.00 | 0.00 | 47 | 1003.0 | |
| 20260502184915 | 33 | 0.0 | 0.0 | 0.00 | 0.00 | 0.00 | 47 | 1003.2 | |
| 20260502183910 | 33 | 0.0 | 0.0 | 0.00 | 0.00 | 0.00 | 46 | 1003.0 | |
| 20260502181902 | 33 | 0.0 | 0.0 | 0.00 | 0.00 | 0.00 | 46 | 1003.6 | |
| 20260502180859 | 33 | 0.0 | 0.0 | 0.00 | 0.00 | 0.00 | 46 | 1003.8 | |
| 20260502162817 | 33 | 0.0 | 0.0 | 0.00 | 0.00 | 0.00 | 44 | 1004.8 | |
| 20260502161813 | 33 | 0.0 | 0.0 | 0.00 | 0.00 | 0.00 | 44 | 1005.1 | |
| 20260502160808 | 33 | 0.0 | 0.0 | 0.00 | 0.00 | 0.00 | 44 | 1005.2 | |
| 20260502150744 | 33 | 0.0 | 0.0 | 0.00 | 0.00 | 0.00 | 42 | 1004.7 | |
| 20260502130655 | 32 | 0.0 | 0.0 | 0.00 | 0.00 | 0.00 | 46 | 1003.6 | |
| 20260502123642 | 32 | 0.0 | 0.0 | 0.00 | 0.00 | 0.00 | 46 | 1003.2 | |
| 20260502122638 | 32 | 0.0 | 0.0 | 0.00 | 0.00 | 0.00 | 46 | 1003.2 | |
| 20260502121634 | 32 | 0.0 | 0.0 | 0.00 | 0.00 | 0.00 | 46 | 1003.1 | |
| 20260502114621 | 32 | 0.0 | 0.0 | 0.00 | 0.00 | 0.00 | 46 | 1002.2 | |
| 20260502113618 | 32 | 0.0 | 0.0 | 0.00 | 0.00 | 0.00 | 46 | 1002.2 | |
| 20260502112613 | 32 | 0.0 | 0.0 | 0.00 | 0.00 | 0.00 | 46 | 1002.3 | |
| 20260502111610 | 32 | 0.0 | 0.0 | 0.00 | 0.00 | 0.00 | 46 | 1002.3 | |
| 20260502110605 | 32 | 0.0 | 0.0 | 0.00 | 0.00 | 0.00 | 46 | 1002.2 | |
| 20260502104556 | 32 | 0.0 | 0.0 | 0.00 | 0.00 | 0.00 | 46 | 1001.9 | |
| 20260502103553 | 32 | 0.0 | 0.0 | 0.00 | 0.00 | 0.00 | 46 | 1001.9 | |
| 20260502100540 | 32 | 0.0 | 0.0 | 0.00 | 0.00 | 0.00 | 46 | 1001.7 | |
| 20260502090516 | 31 | 0.0 | 0.0 | 0.00 | 0.00 | 0.00 | 46 | 1001.1 | |
| 20260502071431 | 29 | 0.0 | 0.0 | 0.00 | 0.00 | 0.00 | 36 | 1001.8 | |
| 20260502070426 | 30 | 0.0 | 0.0 | 0.00 | 0.00 | 0.00 | 38 | 1002.0 | |
| 20260502065422 | 29 | 0.0 | 0.0 | 0.00 | 0.00 | 0.00 | 33 | 1002.3 | |
| 20260502064418 | 30 | 0.0 | 0.0 | 0.00 | 0.00 | 0.00 | 42 | 1002.1 | |
| 20260502062409 | 30 | 0.0 | 0.0 | 0.00 | 0.00 | 0.00 | 36 | 1002.2 | |
| 20260502061405 | 30 | 0.0 | 0.0 | 0.00 | 0.00 | 0.00 | 42 | 1002.5 | |
| 20260502060402 | 30 | 0.0 | 0.0 | 0.00 | 0.00 | 0.00 | 34 | 1002.5 | |
| 20260502055358 | 30 | 0.0 | 0.0 | 0.00 | 0.00 | 0.00 | 37 | 1002.6 | |
| 20260502054354 | 30 | 0.0 | 0.0 | 0.00 | 0.00 | 0.00 | 41 | 1002.6 | |
| 20260502050337 | 30 | 0.0 | 0.0 | 0.00 | 0.00 | 0.00 | 30 | 1002.4 | |
| 20260502044328 | 30 | 0.0 | 0.0 | 0.00 | 0.00 | 0.00 | 36 | 1001.9 | |
| 20260502043324 | 30 | 0.0 | 0.0 | 0.00 | 0.00 | 0.00 | 32 | 1002.5 | |
| 20260502042320 | 31 | 0.0 | 0.0 | 0.00 | 0.00 | 0.00 | 33 | 1002.3 | |
| 20260502041316 | 31 | 0.0 | 0.0 | 0.00 | 0.00 | 0.00 | 33 | 1002.6 | |
| 20260502040312 | 31 | 0.0 | 0.0 | 0.00 | 0.00 | 0.00 | 32 | 1002.9 | |
| 20260502035308 | 31 | 0.0 | 0.0 | 0.00 | 0.00 | 0.00 | 30 | 1002.9 | |
| 20260502034303 | 31 | 0.0 | 0.0 | 0.00 | 0.00 | 0.00 | 30 | 1002.9 | |
| 20260502033300 | 31 | 0.0 | 0.0 | 0.00 | 0.00 | 0.00 | 32 | 1003.0 |